星链-30522 (STARLINK-30522 )

导读

STARLINK-30522是美国太空探索技术公司(SpaceX)星链计划的低轨互联网卫星,于2023年10月5日发射入轨。星链计划旨在构建近地轨道卫星星座,为全球提供高速卫星互联网服务,尤其填补偏远地区网络覆盖空白。该卫星质量约数百千克,运行在数百公里高度的近地轨道,是星链星座不断扩容中的一员,助力实现全球无缝网络覆盖的目标,同时也服务于SpaceX未来深空探测网络布局。

Basic Information
目录编号:
58008
目录名称:
STARLINK-30522
国际标识:
2023-153T
轨道中心:
EARTH
卫星名称:
星链-30522
卫星全名:
星链-30522 (STARLINK-30522 )
卫星状态:
在轨 (已飞行989 天)
发射日期:
2023-10-05 UTC
国别 :
美国 (US)
星等 :
--
Orbit Information
数据来源 国际轨道数据 AOE轨道数据
星历时间 2026-06-19T12:11:27+0800
1天前
查看轨道信息
2026-06-16T06:00:00+0800
4天前
查看轨道信息
半长轴 6861.199km 6861.198km
偏心率 0.0001005 0.0001911
轨道倾角 42.999° 43.006°
近地点辐角 242.314° 258.361°
升交点赤经 214.207° 232.613°
平近点角 117.761° 164.215°
近地点 482.372km 481.749km
远地点 483.752km 484.373km
周期 94.267分钟 94.267分钟
每日圈数 15.27576 15.275763
Detailed Information
固有亮度:
5
最大亮度:
0.3
卫星平台:
Starlink v2.0 mini
覆盖范围:
全球
运营商:
太空探索技术公司
运营商所在国:
美国
制造商(研发单位):
太空探索技术公司
制造商所在国:
美国
使用方式:
暂无
Satellite Introduction
星链(Starlink)计划是由太空探索技术公司(SpaceX)提出的一个巨型低轨卫星互联网星座项目,计划在2019年至2024年间在太空搭建由约1.2万颗卫星组成的“星链”网络,其中1584颗将部署在地球上空550千米处的近地轨道,并从2020年开始工作。该卫星仍在工作。
2D Orbit Map
3D Orbit Map
Orbit Altitude Analysis Chart
Orbit Inclination Analysis Chart
Orbit Comprehensive Analysis Chart
View Comprehensive Chart